| time (UTC) | temp F | wind direction | speed MPH | gust MPH | rain 1hr in | rain 24hr in | rain mn in | humidity % | barometer mb |
| 20260507161553 | 58 | 176 | 6.0 | 10.0 | 0.00 | 0.00 | 0.00 | 72 | 1012.1 |
| 20260507160050 | 57 | 154 | 6.0 | 9.0 | 0.00 | 0.00 | 0.00 | 73 | 1012.1 |
| 20260507154548 | 57 | 209 | 3.0 | 9.0 | 0.00 | 0.00 | 0.00 | 74 | 1012.2 |
| 20260507153049 | 57 | 161 | 5.0 | 10.0 | 0.00 | 0.00 | 0.00 | 73 | 1012.3 |
| 20260507151545 | 57 | 133 | 4.0 | 12.0 | 0.00 | 0.00 | 0.00 | 73 | 1012.4 |
| 20260507150045 | 57 | 136 | 3.0 | 10.0 | 0.00 | 0.00 | 0.00 | 73 | 1012.5 |
| 20260507144544 | 57 | 166 | 4.0 | 9.0 | 0.00 | 0.00 | 0.00 | 73 | 1012.6 |
| 20260507143045 | 57 | 176 | 5.0 | 9.0 | 0.00 | 0.00 | 0.00 | 72 | 1012.6 |
| 20260507141548 | 56 | 170 | 5.0 | 8.0 | 0.00 | 0.00 | 0.00 | 73 | 1012.8 |
| 20260507140042 | 56 | 147 | 2.0 | 10.0 | 0.00 | 0.00 | 0.00 | 71 | 1012.8 |
| 20260507134551 | 56 | 138 | 5.0 | 11.0 | 0.00 | 0.00 | 0.00 | 70 | 1012.5 |
| 20260507133040 | 57 | 155 | 7.0 | 11.0 | 0.00 | 0.00 | 0.00 | 69 | 1012.6 |
| 20260507131540 | 56 | 171 | 3.0 | 5.0 | 0.00 | 0.00 | 0.00 | 72 | 1012.7 |
| 20260507130041 | 56 | 182 | 5.0 | 10.0 | 0.00 | 0.00 | 0.00 | 72 | 1012.7 |
| 20260507124537 | 56 | 165 | 5.0 | 9.0 | 0.00 | 0.00 | 0.00 | 72 | 1012.7 |
| 20260507123037 | 56 | 175 | 4.0 | 7.0 | 0.00 | 0.00 | 0.00 | 73 | 1012.9 |
| 20260507121535 | 56 | 195 | 5.0 | 8.0 | 0.00 | 0.00 | 0.00 | 71 | 1012.9 |
| 20260507120034 | 57 | 181 | 3.0 | 6.0 | 0.00 | 0.00 | 0.00 | 68 | 1013.1 |
| 20260507114536 | 57 | 100 | 2.0 | 8.0 | 0.00 | 0.00 | 0.00 | 71 | 1013.1 |
| 20260507113031 | 56 | 105 | 0.0 | 10.0 | 0.00 | 0.00 | 0.00 | 73 | 1013.1 |
| 20260507111531 | 57 | 100 | 6.0 | 10.0 | 0.00 | 0.00 | 0.00 | 76 | 1013.2 |
| 20260507110033 | 55 | 178 | 0.0 | 7.0 | 0.00 | 0.00 | 0.00 | 77 | 1013.5 |
| 20260507104526 | 55 | 171 | 0.0 | 8.0 | 0.00 | 0.00 | 0.00 | 80 | 1013.6 |
| 20260507103027 | 53 | 45 | 2.0 | 4.0 | 0.00 | 0.00 | 0.00 | 83 | 1013.7 |
| 20260507101520 | 52 | 89 | 3.0 | 7.0 | 0.00 | 0.00 | 0.00 | 85 | 1014.0 |
| 20260507100012 | 51 | 121 | 2.0 | 7.0 | 0.00 | 0.00 | 0.00 | 87 | 1014.0 |
| 20260507094509 | 49 | 113 | 1.0 | 4.0 | 0.00 | 0.00 | 0.00 | 88 | 1013.9 |
| 20260507093005 | 48 | 109 | 1.0 | 6.0 | 0.00 | 0.00 | 0.00 | 89 | 1014.0 |
| 20260507091502 | 48 | 113 | 2.0 | 5.0 | 0.00 | 0.00 | 0.00 | 90 | 1014.0 |
| 20260507090108 | 47 | 120 | 1.0 | 4.0 | 0.00 | 0.00 | 0.00 | 90 | 1014.1 |
| 20260507084559 | 47 | 107 | 0.0 | 4.0 | 0.00 | 0.00 | 0.00 | 91 | 1014.0 |
| 20260507083056 | 46 | 98 | 0.0 | 3.0 | 0.00 | 0.00 | 0.00 | 92 | 1014.2 |
| 20260507081556 | 46 | 113 | 0.0 | 3.0 | 0.00 | 0.00 | 0.00 | 92 | 1014.1 |
| 20260507080054 | 45 | 100 | 0.0 | 3.0 | 0.00 | 0.00 | 0.00 | 92 | 1014.0 |
| 20260507074554 | 45 | 95 | 1.0 | 3.0 | 0.00 | 0.00 | 0.00 | 93 | 1014.2 |
| 20260507073053 | 44 | 94 | 1.0 | 3.0 | 0.00 | 0.00 | 0.00 | 93 | 1014.0 |
| 20260507071556 | 44 | 94 | 0.0 | 3.0 | 0.00 | 0.00 | 0.00 | 93 | 1014.0 |
| 20260507070100 | 44 | 96 | 2.0 | 4.0 | 0.00 | 0.00 | 0.00 | 93 | 1013.7 |
| 20260507064549 | 44 | 105 | 0.0 | 3.0 | 0.00 | 0.00 | 0.00 | 93 | 1013.6 |
| 20260507063049 | 44 | 94 | 0.0 | 3.0 | 0.00 | 0.00 | 0.00 | 94 | 1013.6 |
| 20260507061544 | 43 | 94 | 0.0 | 2.0 | 0.00 | 0.00 | 0.00 | 94 | 1013.6 |
| 20260507060101 | 43 | 92 | 1.0 | 3.0 | 0.00 | 0.00 | 0.00 | 93 | 1013.5 |
| 20260507054546 | 43 | 91 | 0.0 | 2.0 | 0.00 | 0.00 | 0.00 | 93 | 1013.5 |
| 20260507053049 | 43 | 90 | 0.0 | 2.0 | 0.00 | 0.00 | 0.00 | 93 | 1013.4 |
| 20260507051542 | 43 | 90 | 1.0 | 4.0 | 0.00 | 0.00 | 0.00 | 93 | 1013.5 |
| 20260507050042 | 43 | 106 | 0.0 | 2.0 | 0.00 | 0.00 | 0.00 | 93 | 1013.4 |
| 20260507044539 | 43 | 107 | 0.0 | 2.0 | 0.00 | 0.00 | 0.00 | 93 | 1013.5 |
| 20260507043037 | 43 | 107 | 0.0 | 2.0 | 0.00 | 0.00 | 0.00 | 92 | 1013.3 |
| 20260507041538 | 43 | 107 | 0.0 | 3.0 | 0.00 | 0.00 | 0.00 | 92 | 1013.3 |
| 20260507040035 | 43 | 108 | 1.0 | 3.0 | 0.00 | 0.00 | 0.00 | 92 | 1013.2 |
| 20260507034550 | 43 | 76 | 0.0 | 2.0 | 0.00 | 0.00 | 0.00 | 92 | 1013.2 |
| 20260507033038 | 44 | 75 | 0.0 | 2.0 | 0.00 | 0.00 | 0.00 | 92 | 1013.3 |
| 20260507031530 | 44 | 75 | 0.0 | 0.0 | 0.00 | 0.00 | 0.00 | 92 | 1013.3 |
| 20260507030030 | 44 | 75 | 0.0 | 1.0 | 0.00 | 0.00 | 0.00 | 91 | 1013.5 |
| 20260507024546 | 44 | 75 | 0.0 | 2.0 | 0.00 | 0.00 | 0.00 | 91 | 1013.3 |
| 20260507023028 | 44 | 75 | 0.0 | 1.0 | 0.00 | 0.00 | 0.00 | 91 | 1013.4 |
| 20260507021527 | 44 | 75 | 0.0 | 2.0 | 0.00 | 0.00 | 0.00 | 91 | 1013.5 |
| 20260507020027 | 44 | 74 | 0.0 | 3.0 | 0.00 | 0.00 | 0.00 | 91 | 1013.4 |
| 20260507014536 | 44 | 72 | 0.0 | 2.0 | 0.00 | 0.00 | 0.00 | 90 | 1013.4 |
| 20260507013025 | 44 | 72 | 0.0 | 3.0 | 0.00 | 0.00 | 0.00 | 90 | 1013.4 |
| 20260507011536 | 45 | 71 | 0.0 | 1.0 | 0.00 | 0.00 | 0.00 | 90 | 1013.5 |
| 20260507010022 | 45 | 71 | 0.0 | 3.0 | 0.00 | 0.00 | 0.00 | 89 | 1013.4 |
| 20260507004521 | 45 | 66 | 1.0 | 3.0 | 0.00 | 0.00 | 0.00 | 89 | 1013.4 |
| 20260507003021 | 45 | 81 | 1.0 | 3.0 | 0.00 | 0.00 | 0.00 | 89 | 1013.5 |
| 20260507001519 | 45 | 86 | 0.0 | 0.0 | 0.00 | 0.00 | 0.00 | 88 | 1013.6 |
| 20260507000018 | 45 | 86 | 0.0 | 3.0 | 0.00 | 0.00 | 0.00 | 88 | 1013.5 |
| 20260506234519 | 46 | 82 | 1.0 | 4.0 | 0.00 | 0.00 | 0.00 | 88 | 1013.5 |
| 20260506233015 | 46 | 71 | 1.0 | 3.0 | 0.00 | 0.00 | 0.00 | 87 | 1013.4 |
| 20260506231514 | 46 | 88 | 0.0 | 3.0 | 0.00 | 0.00 | 0.00 | 86 | 1013.4 |
| 20260506230016 | 46 | 96 | 0.0 | 3.0 | 0.00 | 0.00 | 0.00 | 85 | 1013.4 |
| 20260506224509 | 47 | 80 | 0.0 | 4.0 | 0.00 | 0.00 | 0.00 | 85 | 1013.3 |
| 20260506223008 | 47 | 58 | 0.0 | 4.0 | 0.00 | 0.00 | 0.00 | 84 | 1013.3 |
| 20260506221507 | 47 | 58 | 2.0 | 6.0 | 0.00 | 0.00 | 0.00 | 83 | 1013.2 |
| 20260506220007 | 47 | 88 | 2.0 | 5.0 | 0.00 | 0.00 | 0.00 | 82 | 1013.2 |
| 20260506214506 | 47 | 89 | 1.0 | 8.0 | 0.00 | 0.00 | 0.00 | 81 | 1013.1 |
| 20260506213005 | 48 | 46 | 3.0 | 7.0 | 0.00 | 0.00 | 0.00 | 81 | 1012.8 |
| 20260506211505 | 48 | 53 | 2.0 | 7.0 | 0.00 | 0.00 | 0.00 | 80 | 1012.8 |
| 20260506210004 | 48 | 51 | 2.0 | 8.0 | 0.00 | 0.00 | 0.00 | 79 | 1012.7 |
| 20260506204505 | 48 | 52 | 2.0 | 5.0 | 0.00 | 0.00 | 0.00 | 78 | 1012.7 |
| 20260506203011 | 48 | 61 | 2.0 | 5.0 | 0.00 | 0.00 | 0.00 | 77 | 1012.6 |
| 20260506201506 | 49 | 51 | 2.0 | 5.0 | 0.00 | 0.00 | 0.00 | 75 | 1012.5 |
| 20260506200003 | 49 | 59 | 2.0 | 5.0 | 0.00 | 0.00 | 0.00 | 73 | 1012.2 |
| 20260506194502 | 50 | 78 | 0.0 | 6.0 | 0.00 | 0.00 | 0.00 | 71 | 1012.1 |
| 20260506193002 | 51 | 59 | 2.0 | 5.0 | 0.00 | 0.00 | 0.00 | 69 | 1012.0 |
| 20260506191601 | 51 | 74 | 0.0 | 1.0 | 0.00 | 0.00 | 0.00 | 69 | 1011.9 |
| 20260506190053 | 52 | 74 | 0.0 | 1.0 | 0.00 | 0.00 | 0.00 | 68 | 1011.8 |
| 20260506184553 | 52 | 74 | 0.0 | 3.0 | 0.00 | 0.00 | 0.00 | 67 | 1011.8 |
| 20260506183053 | 53 | 57 | 1.0 | 6.0 | 0.00 | 0.00 | 0.00 | 64 | 1011.9 |
| 20260506181552 | 54 | 62 | 2.0 | 6.0 | 0.00 | 0.00 | 0.00 | 64 | 1011.8 |
| 20260506180052 | 54 | 55 | 2.0 | 4.0 | 0.00 | 0.00 | 0.00 | 61 | 1011.6 |
| 20260506174558 | 55 | 36 | 3.0 | 7.0 | 0.00 | 0.00 | 0.00 | 60 | 1011.6 |
| 20260506173111 | 55 | 69 | 3.0 | 7.0 | 0.00 | 0.00 | 0.00 | 62 | 1011.5 |
| 20260506171550 | 55 | 49 | 1.0 | 6.0 | 0.00 | 0.00 | 0.00 | 63 | 1011.4 |
| 20260506170049 | 55 | 78 | 2.0 | 6.0 | 0.00 | 0.00 | 0.00 | 61 | 1011.5 |
| 20260506164549 | 55 | 51 | 2.0 | 6.0 | 0.00 | 0.00 | 0.00 | 60 | 1011.4 |
| 20260506163053 | 55 | 35 | 4.0 | 9.0 | 0.00 | 0.00 | 0.00 | 60 | 1011.4 |